Weather History for KCEF - March, 2013

Change the Weather History Date:

Monday, March 18, 2013

  Actual Average Record
Temperature  
Mean Temperature 26 °F -  
Max Temperature 38 °F 42 °F 72 °F (2012)
Min Temperature 13 °F 25 °F 11 °F (2014)
Degree Days  
Heating Degree Days 40    
Moisture  
Dew Point 17 °F    
Average Humidity 69    
Maximum Humidity 96    
Minimum Humidity 20    
Precipitation  
Precipitation 0.02 in - - ()
Sea Level Pressure  
Sea Level Pressure 30.27 in    
Wind  
Wind Speed 4 mph (East)    
Max Wind Speed 13 mph    
Max Gust Speed -    
Visibility 6 miles    
Events Snow    
Averages and records for this station are not official NWS values.
T = Trace of Precipitation, MM = Missing Value Source: NWS Daily Summary

Daily Weather History Graph

Daily Weather History Graph

Search for Another Location

Airport or City:

Trip Planner

Search our weather history database for the weather conditions in past years. The results will help you decide how hot, cold, wet, or windy it might be!

Date:

Astronomy

Mar. 18, 2013 Rise Set
Actual Time 6:56 AM EDT 7:00 PM EDT
Civil Twilight 6:28 AM EDT 7:28 PM EDT
Nautical Twilight 5:55 AM EDT 8:01 PM EDT
Astronomical Twilight 5:22 AM EDT 8:34 PM EDT
Moon 10:47 AM EDT (3/18) 1:03 AM EDT (3/18)
Length of Visible Light 12h 59m
Length of Day
12h 03m
Waxing Crescent, 40% of the Moon is Illuminated
Mar 18
Waxing Crescent
Mar 19
First Quarter
Mar 27
Full
Apr 3
Last Quarter
Apr 10
New

Hourly Weather History & Observations

Time (EDT) Temp. Windchill Dew Point Humidity Pressure Visibility Wind Dir Wind Speed Gust Speed Precip Events Conditions
12:55 AM 22.1 °F 13.7 °F 6.1 °F 50% 30.34 in 10.0 mi NNE 6.9 mph - N/A   Clear
1:55 AM 21.4 °F 11.1 °F 2.7 °F 44% 30.36 in 10.0 mi NE 9.2 mph - N/A   Clear
2:55 AM 21.6 °F 12.1 °F 2.7 °F 44% 30.39 in 10.0 mi NNE 8.1 mph - N/A   Clear
3:55 AM 16.3 °F - 3.6 °F 57% 30.39 in 10.0 mi Calm Calm - N/A   Clear
4:55 AM 13.6 °F 6.0 °F 4.5 °F 67% 30.40 in 10.0 mi ENE 4.6 mph - N/A   Clear
5:55 AM 15.4 °F 9.8 °F 4.5 °F 62% 30.42 in 10.0 mi ENE 3.5 mph - N/A   Clear
6:55 AM 15.3 °F - 6.3 °F 68% 30.45 in 10.0 mi Calm Calm - N/A   Clear
7:55 AM 17.8 °F - 8.4 °F 67% 30.46 in 10.0 mi Calm Calm - N/A   Clear
8:55 AM 22.6 °F 15.3 °F 3.6 °F 44% 30.46 in 10.0 mi North 5.8 mph - N/A   Clear
9:55 AM 26.1 °F 19.4 °F 0.5 °F 33% 30.44 in 10.0 mi Variable 5.8 mph - N/A   Clear
10:55 AM 28.4 °F 22.2 °F 1.0 °F 31% 30.43 in 10.0 mi North 5.8 mph - N/A   Clear
11:55 AM 31.5 °F 24.9 °F -0.9 °F 25% 30.40 in 10.0 mi North 6.9 mph - N/A   Clear
12:55 PM 34.2 °F - -0.9 °F 22% 30.39 in 10.0 mi Calm Calm - N/A   Partly Cloudy
1:55 PM 36.5 °F 32.7 °F -0.2 °F 21% 30.36 in 10.0 mi Variable 4.6 mph - N/A   Partly Cloudy
2:55 PM 37.4 °F 34.9 °F -0.2 °F 20% 30.32 in 10.0 mi SE 3.5 mph - N/A   Scattered Clouds
3:55 PM 38.1 °F - 0.9 °F 21% 30.30 in 10.0 mi Calm Calm - N/A   Partly Cloudy
4:55 PM 37.4 °F - 0.9 °F 21% 30.27 in 10.0 mi Calm Calm - N/A   Mostly Cloudy
5:55 PM 37.2 °F 32.6 °F 2.3 °F 23% 30.26 in 10.0 mi SSE 5.8 mph - N/A   Scattered Clouds
6:55 PM 36.3 °F 33.7 °F 2.8 °F 25% 30.24 in 10.0 mi SSE 3.5 mph - N/A   Partly Cloudy
7:55 PM 34.2 °F 31.2 °F 12.2 °F 40% 30.24 in 10.0 mi Variable 3.5 mph - N/A   Partly Cloudy
8:06 PM 32.0 °F 28.7 °F 17.6 °F 55% 30.23 in 10.0 mi Variable 3.5 mph - N/A Snow Light Snow
8:42 PM 32.0 °F 26.4 °F 19.4 °F 60% 30.23 in 10.0 mi Variable 5.8 mph - N/A   Overcast
8:55 PM 32.0 °F 27.5 °F 20.5 °F 63% 30.24 in 10.0 mi ESE 4.6 mph - N/A   Partly Cloudy
9:55 PM 32.4 °F 23.0 °F 16.0 °F 51% 30.23 in 10.0 mi South 12.7 mph - N/A   Clear
10:17 PM 30.2 °F 20.8 °F 23.0 °F 75% 30.23 in 10.0 mi South 11.5 mph - N/A Snow Light Snow
10:37 PM 28.4 °F 21.2 °F 24.8 °F 86% 30.22 in 6.0 mi SSW 6.9 mph - N/A Snow Light Snow
10:40 PM 28.4 °F 22.2 °F 24.8 °F 86% 30.22 in 6.0 mi South 5.8 mph - N/A Snow Light Snow
10:52 PM 28.4 °F - 26.6 °F 93% 30.22 in 2.5 mi Calm Calm - N/A Snow Light Snow
10:54 PM 28.4 °F 24.6 °F 26.6 °F 93% 30.22 in 3.0 mi SSE 3.5 mph - N/A Snow Light Snow
10:55 PM 28.6 °F - 26.2 °F 91% 30.22 in 3.0 mi Calm Calm - 0.00 in Snow Light Snow
10:56 PM 28.4 °F - 26.6 °F 93% 30.22 in 3.0 mi Calm Calm - N/A Snow Light Snow
10:59 PM 28.4 °F - 26.6 °F 93% 30.22 in 2.5 mi Calm Calm - N/A Snow Light Snow
11:03 PM 28.4 °F - 26.6 °F 93% 30.22 in 2.0 mi Calm Calm - N/A Snow Light Snow
11:05 PM 28.4 °F 24.6 °F 26.6 °F 93% 30.22 in 1.8 mi Variable 3.5 mph - N/A Snow Light Snow
11:07 PM 28.4 °F - 26.6 °F 93% 30.21 in 1.5 mi Calm Calm - N/A Snow Light Snow
11:08 PM 28.4 °F - 26.6 °F 93% 30.21 in 1.5 mi Calm Calm - N/A Snow Light Snow
11:09 PM 28.4 °F - 26.6 °F 93% 30.21 in 1.2 mi Calm Calm - N/A Snow Light Snow
11:10 PM 28.4 °F - 26.6 °F 93% 30.21 in 1.2 mi Calm Calm - N/A Snow Light Snow
11:11 PM 28.4 °F - 26.6 °F 93% 30.21 in 1.2 mi Calm Calm - N/A Snow Light Snow
11:12 PM 28.4 °F - 26.6 °F 93% 30.21 in 1.2 mi Calm Calm - N/A Snow Light Snow
11:14 PM 28.4 °F - 26.6 °F 93% 30.21 in 1.2 mi Calm Calm - N/A Snow Light Snow
11:15 PM 28.4 °F 24.6 °F 26.6 °F 93% 30.21 in 1.2 mi East 3.5 mph - N/A Snow Light Snow
11:18 PM 28.4 °F 23.3 °F 26.6 °F 93% 30.20 in 1.5 mi East 4.6 mph - N/A Snow Light Snow
11:22 PM 28.4 °F 24.6 °F 26.6 °F 93% 30.20 in 1.8 mi ENE 3.5 mph - N/A Snow Light Snow
11:23 PM 28.4 °F 24.6 °F 26.6 °F 93% 30.20 in 1.8 mi ENE 3.5 mph - N/A Snow Light Snow
11:40 PM 28.4 °F 24.6 °F 26.6 °F 93% 30.19 in 1.8 mi Variable 3.5 mph - N/A Snow Light Snow
11:41 PM 28.4 °F 24.6 °F 26.6 °F 93% 30.19 in 1.8 mi ENE 3.5 mph - N/A Snow Light Snow
11:47 PM 28.4 °F 22.2 °F 26.6 °F 93% 30.18 in 1.5 mi Variable 5.8 mph - N/A Snow Light Snow
11:48 PM 28.4 °F 22.2 °F 26.6 °F 93% 30.18 in 1.5 mi ENE 5.8 mph - N/A Snow Light Snow
11:55 PM 28.4 °F 22.2 °F 27.3 °F 96% 30.18 in 1.5 mi NE 5.8 mph - 0.02 in Snow Light Snow
11:56 PM 28.4 °F 21.2 °F 26.6 °F 93% 30.18 in 1.5 mi NE 6.9 mph - N/A Snow Light Snow